Regional Weather Roundup
Issued by NWS Sterling, VA

Home | Current Version | Previous Version | Text Only | Print | Product List | Glossary Off
Versions: 1 2 3 4 5 6 7 8 9 10 11 12 13 14 15 16 17 18 19 20 21 22 23 24 25 26 27 28 29 30 31 32 33 34 35 36 37 38 39 40 41 42 43 44 45 46 47 48 49 50

000
ASUS41 KLWX 031910
RWRLWX

REGIONAL WEATHER ROUNDUP
NATIONAL WEATHER SERVICE BALTIMORE MD/WASHINGTON DC
300 PM EDT SUN MAY 03 2015

Note: "FAIR" indicates few or no clouds below 12,000 feet
with no significant weather and/or obstructions to visibility.
 TC=TEMPERATURE CELSIUS

 * =Non NWS site. Station does not report precipitation (e.g. rain,
    snow, etc.), thunder, or fog.

DCZ001-MDZ009-015-VAZ040>042-051-053>054-032000-
WASHINGTON METRO

CITY           SKY/WX    TMP DP  RH WIND       PRES   REMARKS
WASHINGTON NAT MOSUNNY   84  41  21 CALM      30.10F
DULLES         PTSUNNY   77  40  26 NW6G21    30.11F
ANDREWS AFB    SUNNY     79  42  26 W10       30.10S
FT BELVOIR     MOSUNNY   80  42  26 W9        30.10F
QUANTICO       MOSUNNY   74  52  46 S9        30.12F
COLLEGE PARK*  MOSUNNY   81  37  21 W6        30.10S
LEESBURG*      MOSUNNY   79  46  31 NW7G17    30.11F
MANASSAS*      MOSUNNY   79  41  25 NE6       30.11F
GAITHERSBURG*  SUNNY     79  43  27 CALM      30.14F

$$

MDZ006>007-011-014-032000-
BALTIMORE METRO

CITY           SKY/WX    TMP DP  RH WIND       PRES   REMARKS
BWI AIRPORT    MOSUNNY   79  42  26 W8        30.08F
MD SCIENCE CTR   N/A     82  37  20 MISG      30.08F
MARTIN STATE   MOSUNNY   75  52  43 SE7       30.11S
ANNAPOLIS      PTSUNNY   68  52  56 SE12      30.09F
FORT MEADE*    MOSUNNY   79  39  24 CALM      30.11F

$$

MDZ012-015-019>023-032000-
MARYLAND EASTERN SHORE

CITY           SKY/WX    TMP DP  RH WIND       PRES   REMARKS
OCEAN CITY     SUNNY     63  51  65 SE7       30.12S
SALISBURY      MOSUNNY   79  40  24 N7        30.10S
BAY BRIDGE AP*   N/A    N/A N/A N/A S3        30.10S
CAMBRIDGE*     SUNNY     79  37  22 N9        30.11S
EASTON*        MOSUNNY   81  43  26 NW7       30.14F

$$

MDZ017>025-032000-
SOUTHERN MARYLAND

CITY           SKY/WX    TMP DP  RH WIND       PRES   REMARKS
PATUXENT RIVER MOSUNNY   75  44  33 S7        30.12S
ST INIGOES     MOSUNNY   79  41  25 VRB5      30.11F
LEONARDTOWN*   CLOUDY    77  37  24 CALM      30.13F

$$

MDZ003>005-032000-
NORTH CENTRAL MARYLAND

CITY           SKY/WX    TMP DP  RH WIND       PRES   REMARKS
FREDERICK*     SUNNY     82  34  17 W7        30.12F
HAGERSTOWN APT MOSUNNY   77  39  25 W8        30.10F
WESTMINSTER*   SUNNY     75  30  19 CALM      30.11S

$$

MDZ501>502-032000-
WESTERN MARYLAND

CITY           SKY/WX    TMP DP  RH WIND       PRES   REMARKS
OAKLAND*       PTSUNNY   64  37  36 W7        30.19S
CUMBERLAND*    MOSUNNY   77  39  25 CALM      30.15S

$$

VAZ025>031-032000-
SHENANDOAH VALLEY

CITY           SKY/WX    TMP DP  RH WIND       PRES   REMARKS
WINCHESTER*    MOSUNNY   79  32  18 S7        30.12S
FRONT ROYAL*   MOCLDY    75  41  29 CALM      30.11S
LURAY*         MOCLDY    77  46  33 SW3       30.13S
NEW MARKET*    MOCLDY    74  42  31 S3        30.11F
STAUNTON*      MOSUNNY   75  38  25 E5        30.17S
WAYNESBORO*    FAIR      74  37  26 S6        30.15F

$$

WVZ021-048>050-054>055-032000-
EASTERN WEST VIRGINIA PANHANDLE

CITY           SKY/WX    TMP DP  RH WIND       PRES   REMARKS
MARTINSBURG    PTSUNNY   79  44  28 W9        30.11S
PETERSBURG*    PTSUNNY   78  35  21 NE5       30.13F

$$

VAZ036>039-050-032000-
CENTRAL FOOTHILLS

CITY           SKY/WX    TMP DP  RH WIND       PRES   REMARKS
CHARLOTTESVILL MOSUNNY   76  39  26 VRB3      30.13S
CULPEPER*      NOT AVBL
ORANGE*        MOSUNNY   77  43  29 SE3       30.14F
GORDONSVILLE*  FAIR      78  42  28 SW8       30.12F
WARRENTON*     FAIR      82  47  29 W3        30.11F

$$

VAZ055>057-032000-
NORTH AND CENTRAL PIEDMONT

CITY           SKY/WX    TMP DP  RH WIND       PRES   REMARKS
FREDERICKSBRG* MOSUNNY   79  41  25 NW3       30.11S
STAFFORD*      MOSUNNY   78  35  21 W6        30.15F

$$

NCZ024-NYZ072-PAZ021-071-VAZ022-071-032000-
OTHER REGIONAL OBSERVATIONS

CITY           SKY/WX    TMP DP  RH WIND       PRES   REMARKS
NEW YORK CITY  SUNNY     78  39  24 VRB6      30.09S
PHILADELPHIA   MOSUNNY   79  37  22 S7        30.08F
PITTSBURGH     PTSUNNY   73  40  30 W7        30.11S
ROANOKE        PTSUNNY   74  36  25 CALM      30.17F
RICHMOND       MOSUNNY   78  36  21 CALM      30.13F
RALEIGH        PTSUNNY   76  43  30 CALM      30.17F

$$

ANZ530>537-032000-
MARINE OBSERVATIONS

STATION/POSITION TIME  TEMP    WIND        PRES
                       AIR SEA DIR/SP/G
                 (UTC) (F)     (DEG/KT/KT) (MB)
THOMAS PT LIGHT  1900   72 57  150/  9/  9 1019.8F
BALT KEY BRIDGE  1800   68     120/  8/ 11 1018.9F
COVE POINT       1800   67     100/  1/  2 1020.6F
LEWISETTA        1800   68 62              1019.8F
SOLOMONS ISLAND  1806      61                N/A
PINEY POINT      1800          310/  4/  5   N/A

$$



USA.gov is the U.S. government's official web portal to all federal, state and local government web resources and services.